EST,Max TemperatureF,Mean TemperatureF,Min TemperatureF,Max Dew PointF,MeanDew PointF,Min DewpointF,Max Humidity, Mean Humidity, Min Humidity, Max Sea Level PressureIn, Mean Sea Level PressureIn, Min Sea Level PressureIn, Max VisibilityMiles, Mean VisibilityMiles, Min VisibilityMiles, Max Wind SpeedMPH, Mean Wind SpeedMPH, Max Gust SpeedMPH,PrecipitationIn, CloudCover, Events, WindDirDegrees
2012-12-1,,,,,,,,,,,,,,,,,,,,,,
2012-12-2,,,,,,,,,,,,,,,,,,,,,,
2012-12-3,,,,,,,,,,,,,,,,,,,,,,
2012-12-4,,,,,,,,,,,,,,,,,,,,,,
2012-12-5,53,42,32,43,37,32,100,82,54,30.35,30.29,30.23,10,9,0,9,3,,0.00,1,Fog-Rain,46
2012-12-6,51,40,30,46,37,28,100,85,62,30.26,30.13,30.02,10,10,7,12,6,,0.00,4,Rain,152
2012-12-7,57,54,50,54,50,46,100,93,82,30.03,29.97,29.90,10,9,3,14,6,18,0.00,8,Rain,227
2012-12-8,59,54,50,55,53,50,100,96,88,30.02,29.94,29.88,10,8,2,14,8,17,0.00,8,Rain,249
2012-12-9,60,54,50,57,54,50,100,95,82,30.02,29.93,29.76,10,7,0,17,7,24,0.00,8,Rain,170
2012-12-10,60,46,32,55,45,32,100,97,82,29.96,29.77,29.68,10,7,2,17,9,28,0.00,8,Rain,307
2012-12-11,33,30,26,30,28,25,100,86,70,30.26,30.12,29.96,10,10,7,9,5,,0.00,6,,286
2012-12-12,41,31,21,28,25,19,100,83,57,30.41,30.35,30.26,10,10,7,10,2,,0.00,0,,86
2012-12-13,46,34,21,32,26,19,100,82,53,30.42,30.36,30.30,10,10,10,6,2,,0.00,0,,139
2012-12-14,53,40,26,32,28,25,100,71,35,30.36,30.28,30.18,10,10,7,8,5,,0.00,0,,223
2012-12-15,55,45,35,45,36,28,87,63,51,30.18,30.02,29.87,10,10,10,18,7,26,0.00,4,Rain,201
2012-12-16,60,56,53,54,51,46,88,83,72,29.88,29.80,29.74,10,10,10,15,11,25,0.00,6,,232
2012-12-17,55,48,42,54,49,41,100,92,82,29.79,29.69,29.57,10,10,4,22,6,36,0.00,7,Rain,236
2012-12-18,44,40,37,45,37,32,100,86,61,29.93,29.82,29.64,10,9,3,17,9,25,0.00,5,Rain,265
2012-12-19,50,44,37,39,36,32,93,74,62,30.08,30.01,29.86,10,10,10,17,8,23,0.00,0,,229
2012-12-20,53,42,32,46,39,27,93,79,54,29.98,29.64,29.40,10,9,4,34,14,46,0.00,6,Rain,210
2012-12-21,32,30,28,28,24,21,93,81,69,30.12,29.86,29.66,10,7,0,26,18,39,0.00,8,Snow,291
2012-12-22,35,30,26,25,22,19,80,73,60,30.30,30.19,30.10,10,10,10,15,9,22,0.00,3,,269
2012-12-23,50,40,30,37,27,19,93,64,50,30.11,30.01,29.95,10,10,7,14,8,20,0.00,1,,238
2012-12-24,48,44,41,46,43,36,100,97,81,30.00,29.86,29.78,10,6,1,12,6,16,0.00,8,Rain,235
2012-12-25,39,36,32,36,30,27,100,87,80,30.15,30.07,29.95,10,9,5,15,8,26,0.00,8,,54
2012-12-26,44,37,30,43,35,28,100,96,87,29.94,29.64,29.45,10,7,3,22,14,36,0.00,8,Rain-Snow,75
2012-12-27,32,31,30,28,26,23,93,82,69,30.17,30.10,29.93,10,10,10,17,8,23,0.00,8,,325
2012-12-28,37,34,30,32,29,25,100,85,75,30.15,30.03,29.80,10,9,2,8,5,,0.00,7,Rain-Snow,137
2012-12-29,33,30,26,34,29,21,100,93,74,30.23,29.91,29.69,10,7,2,17,8,29,0.00,8,Rain-Snow,291
2012-12-30,32,28,23,23,22,19,100,79,64,30.47,30.40,30.25,10,10,7,15,8,22,0.00,4,,273
2012-12-31,35,29,23,32,26,21,93,80,75,30.38,30.23,30.12,10,10,5,10,6,16,0.00,4,Rain,238